TimeCST,TemperatureF,Dew PointF,Humidity,Sea Level PressureIn,VisibilityMPH,Wind Direction,Wind SpeedMPH,Gust SpeedMPH,PrecipitationIn,Events,Conditions,WindDirDegrees,DateUTC
12:15 AM,66.7,65.7,96,29.83,5.0,SE,4.6,-,N/A,,Clear,130,2013-01-12 06:15:00
12:55 AM,66.9,65.8,96,29.82,5.0,SE,8.1,-,N/A,,Mostly Cloudy,130,2013-01-12 06:55:00
1:15 AM,67.8,66.4,95,29.80,7.0,SE,12.7,18.4,N/A,,Overcast,140,2013-01-12 07:15:00
1:35 AM,68.2,66.7,95,29.80,7.0,SE,13.8,21.9,N/A,,Overcast,140,2013-01-12 07:35:00
2:15 AM,69.8,67.1,91,29.81,7.0,SSE,12.7,18.4,N/A,,Scattered Clouds,160,2013-01-12 08:15:00
2:35 AM,70.0,67.1,91,29.82,7.0,SSE,10.4,-,N/A,,Scattered Clouds,160,2013-01-12 08:35:00
2:55 AM,70.7,67.3,89,29.80,5.0,SSE,13.8,19.6,N/A,,Clear,150,2013-01-12 08:55:00
3:15 AM,70.9,67.5,89,29.79,7.0,SSE,13.8,20.7,N/A,,Clear,150,2013-01-12 09:15:00
3:35 AM,71.2,67.5,88,29.78,7.0,SSE,16.1,20.7,N/A,,Clear,150,2013-01-12 09:35:00
4:15 AM,71.1,67.1,87,29.75,10.0,SSE,9.2,-,N/A,,Clear,150,2013-01-12 10:15:00
4:35 AM,71.1,67.3,88,29.74,10.0,SSE,12.7,18.4,N/A,,Clear,150,2013-01-12 10:35:00
4:55 AM,71.2,67.5,88,29.74,7.0,SSE,13.8,-,N/A,,Clear,150,2013-01-12 10:55:00
5:15 AM,71.1,67.5,88,29.75,10.0,SSE,13.8,-,N/A,,Clear,150,2013-01-12 11:15:00
5:35 AM,71.2,67.8,89,29.74,10.0,SSE,15.0,-,N/A,,Clear,150,2013-01-12 11:35:00
5:55 AM,71.1,67.8,89,29.74,7.0,SSE,13.8,19.6,N/A,,Clear,150,2013-01-12 11:55:00
6:15 AM,71.4,68.0,89,29.74,10.0,SSE,15.0,20.7,N/A,,Scattered Clouds,160,2013-01-12 12:15:00
6:35 AM,71.6,68.2,89,29.74,10.0,SSE,16.1,21.9,N/A,,Mostly Cloudy,160,2013-01-12 12:35:00
6:55 AM,71.8,68.2,88,29.74,10.0,SSE,17.3,23.0,N/A,,Overcast,160,2013-01-12 12:55:00
7:15 AM,71.8,68.2,88,29.74,7.0,SSE,16.1,23.0,N/A,,Mostly Cloudy,160,2013-01-12 13:15:00
7:35 AM,72.0,68.0,87,29.75,10.0,SSE,17.3,24.2,N/A,,Scattered Clouds,160,2013-01-12 13:35:00
7:55 AM,71.8,68.0,88,29.75,7.0,SSE,16.1,20.7,N/A,,Clear,150,2013-01-12 13:55:00
8:15 AM,71.8,68.2,88,29.75,7.0,SSE,17.3,20.7,N/A,,Clear,150,2013-01-12 14:15:00
8:35 AM,72.1,68.4,88,29.77,10.0,South,13.8,21.9,N/A,,Scattered Clouds,170,2013-01-12 14:35:00
9:15 AM,73.4,68.5,85,29.77,10.0,SSE,19.6,25.3,N/A,,Overcast,160,2013-01-12 15:15:00
9:35 AM,73.8,68.7,84,29.78,10.0,South,20.7,24.2,N/A,,Mostly Cloudy,170,2013-01-12 15:35:00
9:55 AM,74.5,68.5,82,29.78,10.0,South,24.2,29.9,N/A,,Scattered Clouds,170,2013-01-12 15:55:00
10:15 AM,75.4,68.9,80,29.78,10.0,South,18.4,27.6,N/A,,Mostly Cloudy,170,2013-01-12 16:15:00
10:35 AM,76.3,68.9,78,29.78,10.0,South,21.9,26.5,N/A,,Mostly Cloudy,170,2013-01-12 16:35:00
11:15 AM,78.1,68.7,73,29.76,10.0,South,17.3,27.6,N/A,,Scattered Clouds,170,2013-01-12 17:15:00
11:35 AM,79.0,68.5,70,29.75,10.0,South,20.7,31.1,N/A,,Clear,170,2013-01-12 17:35:00
11:55 AM,81.0,68.2,65,29.74,10.0,South,21.9,31.1,N/A,,Clear,180,2013-01-12 17:55:00
12:15 PM,81.1,68.5,65,29.72,10.0,South,24.2,28.8,N/A,,Clear,170,2013-01-12 18:15:00
12:35 PM,81.9,68.0,63,29.71,10.0,South,20.7,29.9,N/A,,Clear,180,2013-01-12 18:35:00
1:15 PM,83.3,67.3,58,29.69,10.0,South,20.7,26.5,N/A,,Clear,180,2013-01-12 19:15:00
1:35 PM,83.3,67.5,59,29.68,10.0,South,20.7,25.3,N/A,,Clear,180,2013-01-12 19:35:00
1:55 PM,83.3,67.8,59,29.67,10.0,South,17.3,24.2,N/A,,Clear,170,2013-01-12 19:55:00
2:15 PM,83.8,68.0,59,29.66,7.0,SSE,18.4,24.2,N/A,,Clear,160,2013-01-12 20:15:00
2:35 PM,84.2,68.4,59,29.65,7.0,SSE,17.3,23.0,N/A,,Clear,160,2013-01-12 20:35:00
2:55 PM,83.8,68.5,60,29.65,10.0,SSE,12.7,-,N/A,,Clear,160,2013-01-12 20:55:00
3:15 PM,84.2,69.1,60,29.65,10.0,South,17.3,21.9,N/A,,Clear,170,2013-01-12 21:15:00
3:35 PM,83.7,69.8,63,29.65,7.0,SSE,13.8,18.4,N/A,,Clear,150,2013-01-12 21:35:00
3:55 PM,83.3,70.7,66,29.65,7.0,SSE,17.3,21.9,N/A,,Clear,160,2013-01-12 21:55:00
4:15 PM,82.4,70.9,68,29.65,10.0,SSE,13.8,24.2,N/A,,Clear,160,2013-01-12 22:15:00
4:35 PM,81.5,71.4,71,29.65,7.0,SSE,13.8,19.6,N/A,,Clear,160,2013-01-12 22:35:00
4:55 PM,80.8,70.9,72,29.66,10.0,SSE,10.4,-,N/A,,Clear,160,2013-01-12 22:55:00
5:15 PM,80.6,70.7,72,29.66,10.0,South,13.8,-,N/A,,Clear,170,2013-01-12 23:15:00
5:35 PM,80.1,70.7,73,29.67,10.0,SSE,12.7,-,N/A,,Clear,160,2013-01-12 23:35:00
6:15 PM,78.8,70.7,76,29.66,10.0,SSE,15.0,19.6,N/A,,Clear,160,2013-01-13 00:15:00
6:35 PM,78.3,70.9,78,29.66,10.0,SSE,11.5,-,N/A,,Clear,160,2013-01-13 00:35:00
6:55 PM,77.9,71.2,80,29.66,7.0,SSE,12.7,-,N/A,,Clear,160,2013-01-13 00:55:00
7:15 PM,77.2,71.1,81,29.66,10.0,South,11.5,16.1,N/A,,Clear,170,2013-01-13 01:15:00
7:35 PM,76.8,70.9,82,29.66,7.0,SSE,11.5,-,N/A,,Clear,160,2013-01-13 01:35:00
7:55 PM,76.5,70.9,83,29.66,7.0,SSE,10.4,-,N/A,,Clear,160,2013-01-13 01:55:00
8:15 PM,76.5,70.9,83,29.67,7.0,South,10.4,16.1,N/A,,Clear,170,2013-01-13 02:15:00
8:35 PM,76.1,70.7,83,29.66,7.0,SSE,12.7,-,N/A,,Clear,160,2013-01-13 02:35:00
8:55 PM,76.1,70.3,82,29.66,7.0,South,11.5,18.4,N/A,,Clear,170,2013-01-13 02:55:00
9:15 PM,75.9,70.2,82,29.66,7.0,South,12.7,-,N/A,,Clear,170,2013-01-13 03:15:00
9:35 PM,75.7,70.2,83,29.67,7.0,South,10.4,19.6,N/A,,Clear,180,2013-01-13 03:35:00
10:15 PM,75.4,70.2,84,29.67,7.0,SSE,12.7,16.1,N/A,,Scattered Clouds,160,2013-01-13 04:15:00
10:35 PM,75.4,70.3,84,29.68,7.0,South,11.5,17.3,N/A,,Overcast,170,2013-01-13 04:35:00
10:55 PM,75.2,70.2,84,29.69,7.0,South,10.4,-,N/A,,Overcast,180,2013-01-13 04:55:00
11:15 PM,75.2,70.2,84,29.69,7.0,South,9.2,-,N/A,,Overcast,170,2013-01-13 05:15:00
11:35 PM,74.8,70.2,85,29.69,7.0,South,9.2,16.1,N/A,,Overcast,170,2013-01-13 05:35:00